This is the latest recevied weather packets stored in our database for station/object EA1AHA-13. If no packets are shown the sender has not sent any weather packets the latest 10 day(s).
| Time | Temp. | Humidity | Pressure | Rain* | Wind** | Luminosity | Snow |
|---|---|---|---|---|---|---|---|
| 1777740413 | 14.44° C | 95% | 1013.1 hPa | 0 mm | - | - | - |
| 1777739789 | 14.44° C | 96% | 1012.9 hPa | 0 mm | - | - | - |
| 1777739165 | 14.44° C | 97% | 1012.9 hPa | 0 mm | - | - | - |
| 1777738590 | 14.44° C | 97% | 1012.9 hPa | 0 mm | - | - | - |
| 1777737966 | 13.89° C | 98% | 1012.7 hPa | 0 mm | - | - | - |
| 1777737389 | 14.44° C | 98% | 1013.1 hPa | 0.25 mm | - | - | - |
| 1777736765 | 14.44° C | 98% | 1013 hPa | 0.51 mm | - | - | - |
| 1777736189 | 15° C | 98% | 1013.2 hPa | 2.03 mm | - | - | - |
| 1777735565 | 15° C | 98% | 1013.1 hPa | 3.05 mm | - | - | - |
| 1777734989 | 14.44° C | 98% | 1012.9 hPa | 3.81 mm | - | - | - |
| 1777734366 | 14.44° C | 98% | 1012.9 hPa | 7.11 mm | - | - | - |
| 1777733789 | 14.44° C | 98% | 1013.3 hPa | 10.16 mm | - | - | - |
| 1777733165 | 14.44° C | 97% | 1013.1 hPa | 11.94 mm | - | - | - |
| 1777732589 | 14.44° C | 97% | 1014 hPa | 10.41 mm | - | - | - |
| 1777731965 | 14.44° C | 96% | 1013.9 hPa | 9.14 mm | - | - | - |
| 1777731390 | 15° C | 95% | 1013.7 hPa | 8.64 mm | - | - | - |
| 1777730765 | 15° C | 94% | 1014 hPa | 5.33 mm | - | - | - |
| 1777730190 | 15° C | 93% | 1014 hPa | 2.03 mm | - | - | - |
| 1777729565 | 15° C | 92% | 1013.5 hPa | 0 mm | - | - | - |
| 1777728989 | 15° C | 91% | 1013.2 hPa | 0 mm | - | - | - |
| 1777728365 | 15.56° C | 89% | 1013.5 hPa | 0 mm | - | - | - |
| 1777727790 | 16.11° C | 87% | 1013.4 hPa | 0 mm | - | - | - |
| 1777727165 | 16.11° C | 85% | 1013.3 hPa | 0 mm | - | - | - |
| 1777726589 | 16.67° C | 83% | 1013.3 hPa | 0 mm | - | - | - |
| 1777725965 | 16.67° C | 85% | 1013.1 hPa | 0 mm | - | - | - |
* Rain latest hour (hover to see other rain measurements)
** Current wind speed in m/s (hover to see current wind gust speed)